Flag for France Weather past 2 weeks in Reims, France

Now
57 °F

Clear.


Feels Like: 55 °F
Forecast: 51 / 66 °F
Wind: 10 mph from Southwest

Location: Chalons-Vatry

Current Time: Aug 22, 2014 at 10:04:35 AM

Latest Report: Aug 22, 2014 at 9:30 AM


Visibility: N/A

Pressure: 29.98 "Hg

Humidity: 72%

Dew point: 48 °F

Location of ReimsLocation

Historic Weather in Reims — Graph

°F

Reims temperature yesterday

Maximum temperature yesterday: 66 °F (at 3:00 PM)
Minimum temperature yesterday: 41 °F (at 7:00 AM)
Average temperature yesterday: 55 °F

Past Weeks' High & Low Weather Summary

 TemperatureHumidityPressure
High79 °F (Aug 7, 3:00 PM)100% (Aug 7, 9:00 AM)30.21 "Hg (Aug 7, 9:00 AM)
Low41 °F (Aug 21, 7:00 AM)46% (Aug 19, 5:00 PM)29.65 "Hg (Aug 10, 4:30 PM)
Average61 °F81%29.95 "Hg
* Reported Aug 7 9:00 AM — Aug 22 9:00 AM, Reims, Weather by CustomWeather, © 2014

Note: Actual official high and low records may vary slightly from our data, if they occured in-between our weather recording intervals... More about our weather records

Advertising

Reims weather history for previous 24 hours

 ConditionsComfort  
Time TempWeatherWind HumidityBarometerVisibility
9:00 AM
Aug 22
55 °FClear.9 mph77%29.98 "HgN/A
8:30 AM54 °FClear.3 mph82%29.98 "HgN/A
8:00 AM54 °FClear.6 mph82%29.98 "HgN/A
7:30 AM52 °FClear.7 mph82%29.98 "HgN/A
7:00 AM52 °FClear.5 mph82%29.98 "HgN/A
6:30 AM52 °FClear.7 mph82%29.98 "HgN/A
6:00 AM52 °FClear.7 mph82%29.98 "HgN/A
5:30 AM52 °FClear.6 mph82%29.98 "HgN/A
5:00 AM50 °FClear.7 mph88%29.98 "HgN/A
4:30 AM50 °FClear.7 mph88%29.98 "HgN/A
4:00 AM50 °FClear.6 mph88%30.01 "HgN/A
3:30 AM50 °FClear.5 mph82%30.01 "HgN/A
3:00 AM50 °FClear.7 mph82%30.01 "HgN/A
2:30 AM50 °FClear.7 mph82%30.01 "HgN/A
2:00 AM52 °FClear.6 mph77%30.01 "HgN/A
1:30 AM52 °FClear.6 mph82%30.01 "HgN/A
1:00 AM52 °FClear.6 mph82%30.01 "HgN/A
12:30 AM52 °FClear.5 mph72%30.01 "HgN/A
12:00 AM52 °FClear.5 mph72%30.04 "HgN/A
11:30 PM
Aug 21
52 °FClear.5 mph72%30.04 "HgN/A
11:00 PM52 °FClear.5 mph72%30.04 "HgN/A
10:30 PM54 °FClear.5 mph72%30.04 "HgN/A
10:00 PM54 °FClear.3 mph72%30.04 "HgN/A
9:30 PM55 °FClear.3 mph67%30.04 "HgN/A
9:00 PM57 °FClear.3 mph67%30.01 "HgN/A
8:30 PM59 °FClear.5 mph63%30.01 "HgN/A
8:00 PM61 °FClear.6 mph59%30.04 "HgN/A
7:30 PM64 °FClear.7 mph49%30.04 "HgN/A
7:00 PM63 °FClear.8 mph52%30.04 "HgN/A
6:30 PM64 °FClear.8 mph49%30.04 "HgN/A
6:00 PM64 °FClear.6 mph46%30.04 "HgN/A
5:30 PM64 °FClear.7 mph49%30.04 "HgN/A
5:00 PM66 °FClear.9 mph46%30.04 "HgN/A
4:30 PM66 °FClear.6 mph46%30.04 "HgN/A
4:00 PM64 °FClear.9 mph49%30.07 "HgN/A
3:30 PM66 °FPassing clouds.10 mph46%30.07 "HgN/A
3:00 PM66 °FClear.7 mph49%30.07 "HgN/A
2:30 PM64 °FPassing clouds.10 mph52%30.07 "HgN/A
2:00 PM64 °FPassing clouds.9 mph56%30.09 "HgN/A
1:30 PM64 °FScattered clouds.9 mph52%30.09 "HgN/A
1:00 PM63 °FPassing clouds.7 mph59%30.09 "HgN/A
12:30 PM63 °FPassing clouds.6 mph56%30.09 "HgN/A
12:00 PM61 °FPassing clouds.8 mph59%30.09 "HgN/A
11:30 AM61 °FPassing clouds.6 mph63%30.09 "HgN/A
11:00 AM59 °FClear.7 mph68%30.12 "HgN/A
10:30 AM57 °FClear.6 mph67%30.12 "HgN/A
10:00 AM55 °FClear.6 mph82%30.09 "HgN/A
Weather by CustomWeather, © 2014

See weather overviewHow to use our weather pages